Wetbulb
46.55 46.68 46.54 47.28 48.02 48.12 49.56 51.48 53.07 53.66 53.61 53.37 53.38 53.17 52.66 52.67 52.78 51.32 51.02 51.05 50.61 50.19 49.70 48.67 46.90 45.97 45.13 44.71 43.91 42.97 41.91 41.88 37.64 36.13 38.96 39.79 39.03 38.37 36.40 36.92 36.25 35.57 35.72
46.13 45.91 46.02 46.30 47.01 47.56 50.47 52.29 52.63 53.05 53.32 53.16 52.57 52.01 52.12 52.09 51.59 50.88 49.81 49.65 49.13 47.28 47.17 46.59 44.06 44.90 43.55 43.04 42.32 40.74 41.16 41.47 38.67 34.17 35.62 36.72 36.92 37.89 36.15 35.38 34.96 35.18 34.15
44.28 44.58 44.44 45.38 45.35 45.72 48.10 52.11 52.26 51.30 51.29 51.78 51.97 51.91 51.35 50.93 49.98 49.78 49.11 48.37 48.18 47.17 45.94 45.01 42.66 42.23 39.63 39.54 39.93 39.41 39.71 40.15 39.39 36.76 34.80 35.88 35.31 35.38 34.23 34.39 33.98 33.82 34.91
43.64 42.79 42.21 43.77 43.75 44.87 46.30 51.10 50.99 51.11 51.01 51.13 51.03 50.48 49.84 49.47 49.27 48.82 47.80 47.04 46.07 45.17 44.47 43.69 41.82 41.75 39.66 38.86 38.74 38.13 38.12 37.77 38.30 36.05 34.74 33.74 33.61 33.98 34.03 32.24 31.44 33.29 33.03
42.92 41.57 40.91 41.97 43.78 45.39 47.31 48.72 49.36 49.85 49.49 49.15 48.45 48.36 48.50 48.03 47.35 46.57 45.47 43.37 40.31 38.18 38.00 38.37 38.77 39.84 40.46 40.20 38.47 37.37 37.62 36.90 36.33 34.52 33.08 32.77 31.82 30.88 30.77 31.09 31.11 32.08 32.16
42.85 40.81 40.58 40.89 42.51 42.75 43.13 43.43 44.25 43.85 43.36 44.16 44.67 44.49 43.89 44.22 45.69 45.79 42.91 39.71 38.15 36.87 36.01 37.25 38.37 39.42 39.57 40.24 39.87 40.07 39.56 36.14 34.38 33.27 32.58 31.42 31.13 31.06 31.33 31.26 29.85 28.33 27.46
42.28 41.22 39.88 40.05 40.97 41.03 41.04 41.15 41.01 40.72 40.86 40.66 40.82 41.13 40.60 41.99 45.13 44.30 41.64 38.27 37.07 36.59 36.46 36.36 36.30 37.34 37.02 36.49 38.05 37.99 37.67 37.91 37.11 34.85 31.90 31.04 30.55 31.35 31.61 29.78 28.68 28.02 27.15
41.22 40.93 39.37 39.43 39.88 40.56 40.11 39.98 39.70 39.68 39.53 39.63 39.53 40.22 40.70 42.35 43.86 41.99 39.87 36.99 36.39 36.19 36.11 35.71 35.02 34.98 35.81 34.21 32.73 31.69 32.01 32.71 33.53 34.13 33.02 31.95 31.61 31.57 30.85 30.11 29.03 28.12 29.55
39.73 40.13 38.66 38.96 39.15 40.02 39.26 39.41 39.42 39.08 38.87 39.16 39.90 40.06 40.12 40.40 41.23 40.44 37.60 35.61 34.44 34.47 35.27 35.49 35.39 35.37 37.37 36.01 32.27 31.46 31.55 31.87 35.28 35.33 34.82 34.48 33.13 32.20 31.03 30.14 27.55 27.40 26.34
38.96 39.50 38.54 38.73 39.33 39.54 39.41 39.23 39.25 39.18 39.07 39.38 38.77 39.22 39.87 38.53 40.15 39.07 36.62 34.41 32.54 32.42 34.78 36.22 37.95 36.22 36.64 35.80 32.63 31.85 29.87 30.42 30.39 29.81 29.81 30.37 30.07 29.72 30.64 28.63 27.93 25.74 25.40
39.52 39.38 38.22 37.92 38.41 39.42 39.22 39.48 39.01 38.10 37.61 36.96 36.49 37.02 37.25 37.72 38.07 39.00 37.97 34.99 33.84 33.72 33.59 34.45 36.18 37.07 36.55 35.88 34.82 31.68 30.09 30.05 29.78 27.88 27.37 27.41 27.64 27.73 27.56 27.98 27.70 26.97 24.72
38.47 38.48 37.16 36.37 37.29 39.03 38.74 38.39 37.57 36.29 34.39 33.61 33.66 34.74 36.53 37.65 39.25 39.17 38.70 37.95 37.66 34.63 34.06 34.92 35.73 35.88 35.05 34.43 33.27 34.53 33.19 31.00 28.59 27.78 26.71 26.00 26.24 26.52 26.60 27.22 27.36 26.99 26.89
36.73 37.60 35.86 35.19 35.49 38.70 37.90 36.52 35.29 35.02 33.89 33.23 33.19 33.27 34.25 36.38 37.28 39.60 39.32 38.53 37.29 35.30 35.68 36.43 36.51 35.02 34.81 34.04 34.17 32.89 31.21 28.53 27.44 26.26 25.33 25.46 26.24 26.34 26.87 27.27 27.54 27.21 27.33
35.03 36.75 35.41 34.61 35.01 37.48 37.58 36.71 35.21 34.28 33.71 33.02 32.59 32.32 33.22 33.73 34.78 35.87 36.32 36.35 37.57 36.61 36.71 34.42 34.18 33.79 33.34 32.36 29.67 28.70 27.88 27.68 27.00 25.76 25.18 25.49 26.19 26.24 25.52 25.78 23.93 24.38 23.42
34.20 35.82 33.75 34.38 35.28 35.18 35.63 35.69 35.17 35.96 35.64 33.62 33.54 33.26 32.38 32.21 34.40 36.34 35.48 34.27 34.27 34.41 33.66 32.47 30.62 28.94 27.10 26.49 26.51 26.90 26.87 26.54 25.37 25.29 24.75 24.25 24.35 25.04 24.74 24.90 24.23 23.72 21.32
33.06 35.79 34.18 33.80 33.51 33.38 32.37 32.37 36.87 37.56 37.90 37.69 37.29 36.13 36.66 37.60 38.05 37.17 36.49 36.48 36.20 35.64 31.49 29.17 28.01 27.04 25.87 25.75 25.84 25.18 25.69 25.60 25.15 25.40 24.70 24.31 23.51 23.48 23.65 23.97 24.01 22.75 21.47
33.30 35.41 34.28 33.45 32.97 32.14 32.06 32.05 31.66 35.86 37.52 37.73 38.02 38.15 38.14 37.94 37.65 36.30 36.52 36.39 35.73 33.79 29.05 27.92 27.30 26.65 25.84 25.86 25.65 25.37 24.15 24.80 25.22 25.35 24.56 23.96 23.59 23.12 22.58 22.14 21.88 21.48 21.20
34.37 36.78 33.73 32.96 33.45 32.88 32.19 32.22 32.45 31.78 31.55 32.92 37.31 37.54 37.98 37.48 36.07 36.14 36.34 35.19 30.86 30.33 28.12 27.30 26.60 26.26 26.01 25.64 25.51 25.05 24.32 23.99 24.91 24.97 23.90 23.09 22.77 21.96 21.56 20.99 20.87 20.20 20.86
34.00 34.83 33.55 33.59 33.12 33.25 32.14 32.29 32.22 32.11 31.86 32.09 33.65 35.94 36.92 36.39 36.32 36.44 35.38 30.56 27.74 26.80 27.21 27.06 26.95 26.24 25.95 25.89 25.52 25.45 24.46 24.33 24.65 23.73 23.10 22.42 21.89 21.17 19.90 20.44 20.67 22.47 22.58
35.06 35.32 34.20 33.14 32.39 31.93 31.88 31.94 31.95 31.93 31.83 32.54 32.81 32.84 33.58 34.07 32.43 31.56 29.84 28.28 27.57 27.00 27.27 26.60 26.48 26.48 26.20 25.70 25.50 24.80 24.17 24.86 23.51 24.11 23.31 22.24 22.04 21.81 20.75 20.16 20.36 19.70 20.32
35.88 34.77 34.88 32.49 32.01 32.07 31.93 31.98 32.25 32.34 32.54 32.85 32.74 33.55 35.18 32.64 31.69 29.70 28.34 27.59 27.31 27.20 27.17 26.65 26.51 26.34 26.53 26.00 25.33 24.74 24.66 25.23 24.51 22.82 22.65 22.27 21.85 21.22 21.82 21.11 20.92 21.49 21.40
35.64 33.92 32.65 31.98 32.03 31.94 31.94 32.22 32.31 32.40 32.67 32.36 32.55 33.66 35.56 32.55 30.62 29.33 28.76 27.70 27.74 28.13 28.20 27.62 26.90 26.58 26.53 25.84 25.59 24.97 23.55 24.43 24.57 23.52 23.04 17.61 21.50 22.26 21.14 20.73 20.53 21.11 21.35
33.98 32.31 31.84 31.87 32.18 33.68 32.28 32.15 32.10 32.31 32.22 32.47 32.95 32.73 31.57 31.10 30.68 29.36 27.63 27.16 27.38 27.68 28.10 28.04 27.19 26.30 26.78 26.85 26.79 25.58 22.89 22.20 23.54 21.49 21.73 22.90 21.60 21.15 21.34 20.62 20.64 19.87 20.13
33.02 32.21 31.84 31.89 31.96 31.87 31.88 31.75 32.04 32.77 32.35 32.49 32.51 31.26 30.94 30.74 29.67 28.08 27.59 28.01 27.84 27.42 27.76 27.59 27.08 26.35 26.10 26.06 26.06 25.74 24.73 23.47 22.76 20.21 17.71 18.03 20.87 21.24 21.50 20.83 20.48 20.67 20.59
32.30 32.03 31.85 31.91 32.14 31.85 32.07 31.85 31.87 32.07 32.23 32.45 31.78 31.40 31.33 30.81 28.56 28.38 28.43 28.40 27.70 27.10 26.63 26.81 27.10 26.22 25.45 24.68 24.81 24.34 24.24 26.21 21.54 21.76 18.65 17.38 14.86 14.28 18.61 19.87 20.33 21.25 21.51
32.22 32.19 31.98 32.09 31.94 32.08 32.01 31.75 31.74 31.94 31.89 31.71 31.62 31.06 30.63 30.17 29.10 28.82 28.44 28.10 27.56 26.97 26.57 26.98 26.84 26.15 24.79 24.29 23.02 23.47 26.48 26.59 25.81 26.51 22.74 23.50 21.59 21.34 21.32 21.34 21.56 21.87 21.35
MSLP
1016.19 1015.66 1015.15 1014.70 1014.22 1013.83 1013.08 1012.53 1012.14 1011.95 1012.06 1012.15 1012.23 1012.51 1012.84 1013.11 1013.49 1013.87 1014.17 1014.52 1014.93 1015.30 1015.83 1016.36 1016.88 1017.48 1018.34 1019.00 1019.85 1020.47 1020.90 1021.52 1022.42 1023.39 1023.52 1024.06 1024.48 1024.73 1025.34 1025.22 1025.84 1025.98 1026.11
1016.16 1015.51 1015.02 1014.49 1013.95 1013.37 1012.55 1011.88 1011.87 1011.67 1011.76 1011.89 1012.12 1012.34 1012.46 1012.74 1013.17 1013.50 1013.90 1014.30 1014.60 1015.18 1015.70 1016.24 1016.84 1017.43 1018.26 1018.84 1019.52 1020.24 1020.84 1021.44 1022.22 1023.07 1023.98 1024.43 1024.71 1024.79 1025.18 1025.54 1025.66 1026.04 1026.23
1016.24 1015.51 1014.90 1014.27 1013.98 1013.33 1012.53 1011.75 1011.61 1011.61 1011.58 1011.64 1011.72 1011.93 1012.24 1012.61 1013.01 1013.33 1013.77 1014.18 1014.49 1015.01 1015.54 1016.12 1016.76 1017.23 1018.26 1019.08 1019.69 1020.24 1020.50 1021.24 1022.02 1022.79 1023.61 1024.54 1025.16 1025.42 1025.94 1025.94 1025.75 1025.98 1025.90
1016.15 1015.62 1015.00 1014.41 1013.90 1013.15 1012.49 1011.66 1011.44 1011.30 1011.35 1011.41 1011.62 1011.82 1012.10 1012.47 1012.75 1013.22 1013.61 1014.18 1014.56 1015.13 1015.83 1016.26 1016.75 1017.21 1017.73 1018.80 1019.49 1020.13 1020.77 1021.48 1021.94 1022.65 1023.63 1024.51 1025.18 1025.69 1025.81 1025.67 1025.61 1025.68 1025.69
1015.95 1015.60 1015.03 1014.43 1013.68 1012.81 1012.14 1011.63 1011.34 1011.35 1011.31 1011.39 1011.41 1011.70 1012.01 1012.26 1012.58 1013.07 1013.62 1014.27 1014.98 1015.66 1016.37 1016.74 1017.31 1017.57 1018.15 1018.84 1019.42 1020.25 1020.68 1021.50 1022.15 1023.14 1023.87 1024.52 1024.90 1025.22 1025.40 1025.73 1025.73 1025.73 1025.52
1015.71 1015.47 1014.99 1014.32 1013.61 1013.03 1012.50 1012.06 1011.73 1011.74 1011.81 1011.75 1011.77 1011.88 1012.16 1012.32 1012.58 1013.14 1013.78 1014.62 1015.35 1015.91 1016.71 1017.29 1017.93 1018.38 1018.76 1019.31 1019.61 1020.43 1020.67 1021.46 1022.54 1023.07 1023.64 1024.02 1024.46 1024.99 1025.50 1025.95 1026.21 1026.04 1025.90
1015.51 1015.26 1014.93 1014.31 1013.63 1013.11 1012.78 1012.44 1012.11 1012.06 1012.10 1012.18 1012.25 1012.28 1012.46 1012.66 1013.03 1013.49 1014.20 1014.94 1015.72 1016.41 1016.89 1017.45 1018.21 1018.97 1019.13 1019.88 1020.31 1021.10 1021.58 1022.02 1022.56 1023.01 1023.75 1024.20 1024.89 1025.23 1025.83 1026.03 1026.40 1026.53 1026.27
1015.33 1015.08 1014.86 1014.26 1013.67 1013.17 1012.98 1012.76 1012.59 1012.41 1012.40 1012.44 1012.50 1012.52 1012.64 1012.94 1013.38 1013.95 1014.69 1015.39 1016.18 1016.92 1017.65 1018.06 1018.42 1019.21 1019.85 1020.49 1021.23 1021.89 1022.77 1023.46 1023.66 1023.81 1024.17 1024.85 1025.28 1025.80 1026.13 1026.36 1026.65 1026.81 1026.46
1015.14 1014.91 1014.72 1014.23 1013.65 1013.12 1012.90 1012.94 1012.81 1012.70 1012.79 1012.76 1012.78 1012.80 1013.01 1013.50 1014.05 1014.42 1014.90 1015.91 1016.66 1017.64 1018.37 1018.79 1019.01 1019.69 1020.74 1021.16 1021.67 1022.68 1023.54 1023.99 1024.24 1024.72 1024.98 1025.54 1025.99 1026.36 1026.50 1026.49 1026.79 1026.87 1026.68
1014.99 1014.85 1014.63 1014.08 1013.59 1013.08 1013.05 1013.07 1012.99 1012.99 1013.03 1013.08 1013.18 1013.35 1013.67 1014.12 1014.74 1015.19 1015.37 1016.26 1017.12 1018.10 1018.91 1019.56 1020.13 1020.56 1021.10 1021.79 1022.26 1022.89 1023.59 1024.36 1024.75 1025.34 1025.86 1026.18 1026.58 1026.86 1026.93 1027.20 1027.38 1027.26 1027.15
1014.82 1014.77 1014.50 1014.04 1013.60 1013.14 1013.12 1013.19 1013.26 1013.30 1013.52 1013.76 1014.04 1014.40 1014.65 1015.02 1015.44 1015.86 1016.16 1016.65 1017.39 1018.48 1019.30 1020.07 1020.66 1021.14 1021.69 1022.19 1022.54 1023.01 1023.70 1024.54 1025.21 1025.76 1026.25 1026.66 1026.93 1027.20 1027.50 1027.57 1027.58 1027.58 1027.54
1014.62 1014.57 1014.42 1014.06 1013.67 1013.27 1013.23 1013.41 1013.60 1013.86 1014.15 1014.60 1014.93 1015.25 1015.61 1015.91 1016.14 1016.47 1016.86 1017.30 1018.06 1018.56 1019.61 1020.45 1021.15 1021.70 1022.26 1022.60 1023.04 1023.59 1024.26 1024.94 1025.55 1026.01 1026.41 1026.87 1027.31 1027.61 1027.71 1027.68 1027.72 1027.72 1027.55
1014.54 1014.41 1014.32 1014.04 1013.74 1013.38 1013.43 1013.70 1014.01 1014.27 1014.65 1015.08 1015.47 1015.76 1016.13 1016.48 1016.88 1017.10 1017.58 1018.22 1018.77 1019.34 1020.20 1020.98 1021.67 1022.21 1022.67 1023.23 1023.81 1024.39 1024.86 1025.38 1025.84 1026.27 1026.76 1027.28 1027.59 1027.78 1027.76 1027.82 1027.67 1027.58 1027.37
1014.42 1014.20 1014.16 1013.96 1013.73 1013.54 1013.55 1013.87 1014.19 1014.46 1014.81 1015.22 1015.70 1016.15 1016.60 1017.06 1017.41 1017.86 1018.35 1018.94 1019.51 1020.13 1020.87 1021.54 1022.07 1022.68 1023.38 1023.93 1024.62 1025.08 1025.44 1025.74 1026.09 1026.59 1027.07 1027.46 1027.69 1027.84 1027.94 1027.98 1027.89 1027.76 1027.36
1014.22 1013.97 1013.99 1013.87 1013.72 1013.80 1013.81 1014.01 1014.31 1014.57 1014.82 1015.16 1015.79 1016.29 1016.74 1017.30 1017.78 1018.16 1018.61 1019.29 1019.95 1020.57 1021.25 1022.05 1022.75 1023.49 1024.13 1024.69 1025.16 1025.59 1025.98 1026.31 1026.64 1027.04 1027.38 1027.64 1027.85 1027.98 1028.07 1028.16 1028.16 1027.98 1027.80
1013.93 1013.68 1013.77 1013.81 1013.86 1013.95 1014.07 1014.30 1014.56 1014.79 1015.14 1015.55 1016.09 1016.49 1017.10 1017.52 1018.07 1018.61 1019.06 1019.59 1020.27 1020.98 1021.81 1022.54 1023.28 1023.93 1024.49 1025.02 1025.46 1025.91 1026.34 1026.74 1027.12 1027.39 1027.66 1027.91 1028.11 1028.20 1028.25 1028.31 1028.31 1028.19 1027.99
1013.66 1013.37 1013.49 1013.63 1013.80 1013.95 1014.15 1014.26 1014.64 1015.17 1015.47 1015.84 1016.31 1016.81 1017.23 1017.70 1018.45 1019.00 1019.51 1020.14 1020.92 1021.55 1022.19 1022.97 1023.59 1024.21 1024.77 1025.21 1025.67 1026.18 1026.72 1027.12 1027.47 1027.69 1027.96 1028.23 1028.40 1028.49 1028.52 1028.50 1028.46 1028.34 1028.07
1013.28 1013.02 1013.19 1013.41 1013.66 1013.86 1014.08 1014.28 1014.61 1015.03 1015.53 1016.12 1016.69 1017.06 1017.67 1018.31 1018.88 1019.42 1020.03 1020.85 1021.60 1022.15 1022.64 1023.25 1023.86 1024.44 1024.95 1025.48 1025.97 1026.39 1026.91 1027.34 1027.62 1027.95 1028.26 1028.53 1028.66 1028.64 1028.59 1028.57 1028.51 1028.38 1028.21
1012.99 1012.84 1013.03 1013.27 1013.52 1013.78 1014.03 1014.34 1014.72 1015.20 1015.65 1016.21 1016.88 1017.57 1018.16 1018.73 1019.39 1020.02 1020.71 1021.22 1021.79 1022.45 1023.02 1023.58 1024.11 1024.66 1025.17 1025.69 1026.14 1026.57 1026.99 1027.37 1027.77 1028.14 1028.46 1028.62 1028.67 1028.67 1028.63 1028.60 1028.55 1028.23 1028.15
1012.66 1012.64 1012.90 1013.17 1013.45 1013.81 1014.09 1014.41 1014.84 1015.34 1015.84 1016.29 1016.88 1017.54 1018.29 1019.04 1019.78 1020.64 1021.24 1021.67 1022.23 1022.80 1023.31 1023.88 1024.44 1024.89 1025.39 1025.92 1026.36 1026.80 1027.17 1027.55 1028.02 1028.19 1028.42 1028.57 1028.58 1028.61 1028.62 1028.69 1028.65 1028.60 1028.42
1012.47 1012.59 1012.80 1013.12 1013.42 1013.78 1014.14 1014.51 1014.95 1015.41 1015.92 1016.48 1017.14 1017.84 1018.47 1019.17 1020.04 1020.94 1021.58 1022.12 1022.55 1023.04 1023.54 1024.08 1024.63 1025.11 1025.60 1026.10 1026.54 1026.88 1027.19 1027.50 1027.83 1028.17 1028.37 1028.48 1028.58 1028.63 1028.71 1028.73 1028.75 1028.66 1028.48
1012.28 1012.51 1012.74 1013.05 1013.40 1013.80 1014.26 1014.68 1015.14 1015.55 1016.12 1016.69 1017.53 1018.32 1018.96 1019.70 1020.47 1021.18 1021.83 1022.35 1022.78 1023.21 1023.69 1024.21 1024.80 1025.30 1025.79 1026.25 1026.56 1026.91 1027.24 1027.48 1027.80 1028.07 1028.34 1028.53 1028.58 1028.66 1028.75 1028.79 1028.77 1028.63 1028.38
1012.25 1012.51 1012.74 1013.10 1013.46 1013.88 1014.37 1014.90 1015.39 1015.85 1016.42 1017.09 1017.85 1018.60 1019.46 1020.20 1020.83 1021.51 1022.20 1022.70 1023.18 1023.64 1024.08 1024.50 1025.00 1025.58 1026.04 1026.34 1026.57 1026.81 1027.25 1027.46 1027.68 1028.02 1028.30 1028.37 1028.64 1028.75 1028.77 1028.78 1028.73 1028.66 1028.44
1012.42 1012.56 1012.78 1013.16 1013.54 1013.99 1014.47 1015.05 1015.60 1016.14 1016.74 1017.45 1018.19 1019.06 1019.82 1020.50 1021.20 1021.85 1022.45 1022.99 1023.49 1024.01 1024.44 1024.84 1025.26 1025.68 1026.13 1026.51 1026.74 1026.94 1027.22 1027.52 1027.76 1028.04 1028.28 1028.55 1028.81 1028.84 1028.82 1028.79 1028.78 1028.62 1028.42
1012.68 1012.74 1012.91 1013.22 1013.60 1014.08 1014.62 1015.24 1015.84 1016.43 1017.07 1017.74 1018.61 1019.40 1020.09 1020.75 1021.42 1022.11 1022.75 1023.22 1023.75 1024.26 1024.71 1025.05 1025.42 1025.86 1026.21 1026.46 1026.75 1027.06 1027.35 1027.57 1027.83 1027.97 1028.31 1028.59 1028.88 1029.14 1028.95 1028.85 1028.72 1028.54 1028.29
1012.97 1012.99 1013.13 1013.40 1013.76 1014.22 1014.74 1015.37 1016.03 1016.71 1017.36 1018.08 1018.83 1019.57 1020.28 1020.94 1021.58 1022.35 1022.98 1023.39 1023.89 1024.36 1024.78 1025.15 1025.55 1025.90 1026.22 1026.53 1026.85 1027.11 1027.29 1027.50 1027.70 1027.82 1028.07 1028.25 1028.52 1028.68 1028.60 1028.59 1028.53 1028.42 1028.14
Wind_Speed
14 13 15 12 12 12 12 10 8 6 6 7 6 6 8 8 9 8 7 8 10 7 8 10 8 9 7 6 4 3 3 3 4 2 3 2 4 4 4 3 3 1 2
13 13 14 15 13 12 11 5 6 6 6 8 7 7 7 7 8 8 8 7 8 9 9 9 9 7 9 7 5 5 5 5 3 5 3 3 2 3 3 3 2 2 1
14 14 15 14 12 13 12 6 6 6 6 4 3 7 7 7 7 8 7 7 8 9 9 10 10 11 7 6 6 6 5 5 3 4 4 3 2 2 2 2 3 3 3
12 13 14 14 13 12 11 8 5 5 6 6 7 7 7 7 7 7 7 6 6 6 6 7 9 10 12 10 7 7 7 5 5 6 4 4 3 2 3 1 3 3 3
13 13 13 13 13 12 8 5 3 3 4 4 4 4 4 6 5 7 6 7 9 9 8 8 6 9 14 11 8 7 8 5 6 5 4 4 4 3 3 2 2 2 1
12 12 12 12 12 10 7 5 3 2 2 1 1 4 5 2 9 12 11 9 9 10 11 11 11 15 16 16 18 11 8 8 6 4 3 5 4 5 3 2 1 2 1
12 11 12 11 11 8 7 5 3 1 0 1 3 3 4 4 12 15 16 9 9 9 11 12 11 10 15 13 22 22 19 16 7 4 6 6 6 3 3 3 1 2 2
13 11 10 10 11 7 6 4 2 1 1 2 3 4 5 5 15 18 20 12 12 12 11 12 14 13 12 13 12 14 12 9 8 7 7 8 7 5 4 3 1 3 4
12 10 10 9 11 6 5 3 0 2 2 2 3 6 8 9 18 22 18 13 14 12 11 11 13 13 18 19 14 13 11 10 15 18 18 16 14 10 5 0 2 2 2
12 10 9 9 9 5 3 1 1 3 4 4 6 7 14 11 18 20 18 12 14 11 10 12 17 14 20 19 11 11 12 9 9 9 8 9 9 7 9 5 2 2 2
11 9 8 8 9 4 1 2 3 6 7 8 9 8 9 10 13 19 21 11 11 10 8 8 9 19 17 15 13 8 11 9 11 7 6 4 4 4 3 3 2 2 2
12 7 7 7 6 3 3 3 5 7 8 8 8 7 6 8 15 19 21 19 18 12 10 8 11 18 16 15 11 18 17 12 5 5 4 4 3 2 2 3 3 3 3
13 7 6 6 5 2 3 5 5 6 6 7 6 6 6 6 8 23 24 23 21 12 9 14 20 18 18 16 18 16 11 4 4 4 4 4 3 3 1 1 1 3 5
13 6 4 5 4 3 3 4 5 5 6 6 7 7 7 7 8 8 9 11 18 12 18 13 14 14 14 14 10 7 4 4 4 4 4 3 3 0 1 2 2 2 2
11 4 4 3 3 2 3 3 4 3 5 7 7 7 8 8 7 12 12 9 9 13 13 9 8 7 7 6 5 6 5 4 4 3 3 2 2 1 2 2 3 3 2
11 4 3 3 2 3 3 4 7 9 12 12 13 9 7 13 21 20 20 21 22 22 9 8 7 6 6 5 5 5 4 5 3 2 2 2 2 1 2 2 2 3 4
10 5 3 3 3 3 3 5 6 7 15 16 17 16 15 17 20 20 20 22 21 15 7 6 6 5 5 5 5 4 4 4 3 3 3 2 2 1 1 2 2 3 4
11 7 3 3 3 3 3 4 6 8 8 7 14 14 20 20 20 21 23 18 8 6 5 6 6 5 5 5 4 4 5 3 3 3 3 2 1 1 1 2 3 3 3
9 2 3 3 3 4 4 5 5 6 8 8 9 13 18 21 21 22 19 6 6 5 5 5 5 5 5 4 4 3 4 3 3 3 2 2 1 1 1 2 3 6 6
7 6 5 3 4 4 4 6 7 7 8 9 8 9 10 14 9 8 4 5 5 5 5 6 5 5 5 5 4 4 3 4 3 2 2 2 1 1 1 2 3 4 4
3 2 6 4 4 5 5 6 7 7 7 8 8 10 18 9 9 7 5 4 5 5 5 6 5 5 4 4 4 3 3 3 3 3 2 1 1 0 1 2 2 3 4
3 3 3 4 5 6 5 6 7 7 8 10 10 12 19 6 7 6 5 5 5 5 5 6 5 4 4 4 4 4 3 4 3 2 2 2 1 1 1 2 3 3 4
3 4 4 4 5 9 7 7 7 8 9 9 9 8 7 6 6 6 5 5 5 5 5 5 5 5 4 3 2 3 3 2 2 3 2 2 1 1 1 1 2 4 5
2 4 5 5 5 6 7 7 7 10 10 9 8 8 7 7 7 7 6 6 5 5 4 4 5 6 5 4 3 2 3 3 3 3 3 2 1 1 1 2 3 4 5
1 3 4 6 6 7 8 8 8 9 8 8 8 6 7 7 7 6 6 5 5 5 5 4 4 6 6 6 5 5 5 7 4 4 3 2 1 1 2 3 3 3 5
1 3 3 4 6 7 8 8 9 9 8 8 7 7 7 7 7 7 6 6 5 5 5 4 5 6 7 4 5 6 6 6 5 7 4 3 2 2 2 3 4 3 5
Wind_Direction
337 331 321 317 308 298 276 267 260 236 232 220 215 199 198 200 198 191 193 192 198 193 183 185 168 153 152 141 134 139 118 116 112 48 62 158 151 174 131 123 124 222 234
330 331 321 314 313 305 298 251 256 269 239 221 200 203 209 192 193 194 190 186 183 176 179 175 163 151 147 143 133 130 146 115 132 125 116 151 161 130 129 155 164 287 303
327 329 324 316 313 306 304 271 248 240 232 247 219 195 195 194 188 189 186 186 179 173 171 171 162 148 133 130 131 132 121 117 113 125 126 131 82 118 174 217 195 228 250
326 324 323 321 312 300 295 274 248 245 242 234 211 198 192 188 184 180 174 174 160 154 162 163 157 160 145 145 138 128 123 122 119 118 114 134 146 167 219 214 196 201 259
323 322 321 319 314 314 295 309 310 270 243 224 200 195 180 175 167 162 151 136 124 107 95 95 97 114 126 135 130 131 126 120 117 126 135 151 148 154 183 107 302 310 246
317 320 320 321 322 322 319 327 329 351 351 347 176 161 148 146 165 155 138 131 126 124 117 107 105 106 111 115 112 117 113 128 138 134 133 155 116 90 100 132 334 328 340
314 319 319 321 322 317 321 319 316 349 62 124 123 125 122 122 157 143 132 121 120 121 124 120 113 110 105 101 92 87 79 78 82 109 119 101 125 121 125 131 53 325 326
311 314 314 319 318 318 311 313 319 30 95 149 130 129 121 142 145 135 124 114 110 109 114 117 114 108 103 101 96 81 78 79 78 86 91 83 84 79 67 56 69 287 256
311 313 312 314 311 303 307 294 316 109 109 110 126 126 129 122 137 135 119 112 106 101 103 109 109 109 123 119 108 107 102 97 91 98 98 98 88 78 57 218 42 338 295
316 314 307 312 310 294 288 240 69 98 93 88 83 102 119 124 134 132 120 117 108 107 106 110 117 123 125 120 119 131 116 108 102 92 93 87 85 70 58 45 21 16 351
314 310 304 316 313 286 224 113 112 101 95 87 86 89 100 119 132 130 121 114 115 115 110 115 121 118 122 126 119 110 117 125 118 110 106 95 96 85 69 58 34 358 338
312 306 303 316 310 275 149 110 103 106 101 97 97 96 104 118 126 123 116 113 118 112 113 114 122 120 121 115 107 122 125 120 116 115 113 99 86 77 57 33 10 329 306
309 302 304 311 299 251 144 129 124 120 121 118 114 109 102 104 114 119 116 117 119 106 110 121 127 126 116 110 118 119 114 110 116 117 107 97 78 70 4 307 296 311 286
306 287 297 293 278 232 131 142 146 146 138 136 131 123 118 117 117 118 114 115 113 112 123 119 121 115 113 114 107 95 88 91 98 101 104 107 111 106 86 358 346 326 304
302 270 279 276 255 191 132 157 156 149 152 143 138 135 136 134 136 128 127 124 126 126 120 114 111 108 110 110 104 102 97 90 93 99 110 113 103 85 84 23 5 350 342
297 270 250 240 212 174 143 113 121 134 135 130 133 137 132 133 135 134 135 132 132 132 121 125 126 125 128 130 126 117 104 107 106 104 82 75 74 54 26 16 10 3 348
291 270 236 221 193 169 160 140 133 140 138 140 138 135 136 138 138 141 136 135 136 132 125 125 128 128 127 121 119 121 123 102 91 95 119 115 109 78 31 19 15 6 355
293 243 200 197 181 164 156 142 139 142 139 135 133 134 132 137 143 141 138 134 135 125 119 128 129 126 125 122 123 123 118 135 122 115 121 124 129 112 21 25 14 360 342
297 200 196 180 164 150 136 137 135 137 136 134 134 130 141 143 143 142 138 130 129 124 124 118 119 123 123 124 119 117 119 128 132 136 145 157 140 66 30 12 350 352 351
287 195 185 162 147 137 136 140 135 135 138 139 136 134 138 137 140 133 103 107 117 122 122 121 122 121 120 125 126 125 127 127 143 163 149 163 132 77 19 357 353 347 340
265 188 175 147 146 140 138 139 137 135 136 131 127 136 144 138 137 127 126 124 126 122 122 122 124 123 124 129 138 141 137 134 142 135 161 152 123 70 11 345 336 324 315
204 175 155 151 139 142 134 133 138 130 130 126 127 144 145 121 123 122 113 108 109 110 115 123 123 126 132 146 147 143 136 149 143 159 152 123 117 154 303 332 327 324 312
147 154 142 139 141 142 136 136 136 132 129 126 134 131 122 124 116 112 119 114 113 112 114 122 125 126 126 119 119 118 130 144 154 129 150 137 148 226 276 314 324 323 328
142 156 147 142 142 138 139 137 134 132 131 131 125 123 126 127 122 124 119 118 115 112 115 122 129 134 132 129 124 111 94 98 108 127 111 102 192 234 271 294 307 321 314
150 146 146 148 148 143 139 137 135 131 129 126 125 122 124 124 124 119 121 123 120 123 122 120 125 139 143 138 138 136 151 155 147 140 128 132 145 140 249 288 308 306 308
77 131 128 137 136 138 137 135 134 133 129 126 125 126 127 131 128 126 133 128 127 125 124 124 139 147 146 148 151 160 168 180 197 198 181 198 206 225 245 268 284 297 298